Regional Weather Roundup
Issued by NWS Charleston, SC

Current Version | Previous Version | Graphics & Text | Print | Product List | Glossary On
Versions: 1 2 3 4 5 6 7 8 9 10 11 12 13 14 15 16 17 18 19 20 21 22 23 24 25 26 27 28 29 30 31 32 33 34 35 36 37 38 39 40 41 42 43 44 45 46 47 48 49 50
000
ASUS42 KCHS 031113
RWRCHS

REGIONAL WEATHER ROUNDUP
NATIONAL WEATHER SERVICE CHARLESTON SC
700 AM EDT TUE MAY 03 2016

NOTE: "FAIR" INDICATES FEW OR NO CLOUDS BELOW 12,000 FEET WITH NO
SIGNIFICANT WEATHER AND/OR OBSTRUCTIONS TO VISIBILITY.

NOT ALL STATIONS ARE QUALITY CONTROLLED. USE DATA WITH CAUTION...
ESPECIALLY DEWPOINT OBSERVATIONS.

SCZ027-030-031-034>040-042>050-031200-
...SOUTHEAST SOUTH CAROLINA...

CITY           SKY/WX    TMP DP  RH WIND       PRES   REMARKS
N CHARLESTON   CLOUDY    75  71  87 SW9       29.86S
WATERFRONT PRK   N/A     75  73  93 SW8       29.85F
MOUNT PLEASANT PTSUNNY   75  73  94 SW9       29.87S FOG
JOHNS ISLAND   PTSUNNY   75  73  94 SW15      29.87F
PINOPOLIS        N/A     73  72  94 VRB3      29.78F
MONCKS CORNER  PTSUNNY   70  66  88 SW3       29.86S
SUMMERVILLE    CLOUDY    72  72 100 CALM      29.87S
BEAUFORT MCAS  CLOUDY    74  72  93 SW6       29.88R
BEAUFORT ARPT  FAIR      73  72  94 SW5       29.87S FOG
HILTON HEAD IS MOCLDY    73  72  94 S7        29.98R
WALTERBORO     CLOUDY    73  73 100 SW6       29.88S
ALLENDALE      CLOUDY    72  70  94 CALM      29.87S FOG

...SOUTHERN MIDLANDS AND PEE DEE...

CITY           SKY/WX    TMP DP  RH WIND       PRES   REMARKS
GEORGETOWN     PTSUNNY   70  66  88 S5        29.88R
KINGSTREE      CLOUDY    68  64  88 CALM      29.86S THUNDER
ORANGEBURG     TSTM      70  68  93 SW8       29.87R FOG
BARNWELL       FAIR      72  72 100 CALM      29.88R
AIKEN          CLOUDY    64  64 100 S3        29.90S
MANNING        CLOUDY    68  66  94 CALM      29.86F
COLUMBIA       MOCLDY    67  65  93 CALM      29.86R
SUMTER         CLOUDY    66  64  93 W2        29.84S
FLORENCE       CLOUDY    66  64  93 W5        29.87R
MYRTLE BEACH   MOCLDY    73  61  64 S12       29.88R
N MYRTLE BEACH CLOUDY    72  66  81 SW14      29.87R

$$

GAZ063-065-086>088-099>101-113>116-118-119-134>141-150-031200-
...SOUTHEAST GEORGIA...

CITY           SKY/WX    TMP DP  RH WIND       PRES   REMARKS
SAVANNAH ARPT  CLOUDY    72  69  90 SW6       29.89S
HUNTER AAF     PTCLDY    72  72 100 SW6       29.87R
FORT STEWART   MOCLDY    71  68  90 CALM      29.88S
STATESBORO     CLOUDY    73  73 100 CALM      29.89R
SYLVANIA       CLOUDY    71  71 100 CALM      29.89R
CLAXTON        FAIR      70  70 100 CALM      29.89S FOG

...CSRA...CENTRAL AND FAR SOUTHEAST GEORGIA...

CITY           SKY/WX    TMP DP  RH WIND       PRES   REMARKS
THOMSON        CLOUDY    69  69 100 CALM      29.92R
AUGUSTA-BUSH   CLOUDY    66  66 100 CALM      29.86S FOG
AUGUSTA-DANIEL CLOUDY    69  66  90 CALM      29.88R
SWAINSBORO     PTSUNNY   68  68 100 CALM      29.90R
VIDALIA        CLOUDY    70  68  94 SW3       29.89S FOG
EASTMAN        FAIR     N/A N/A N/A CALM      29.92R HAZE
HAZLEHURST     FAIR      71  71 100 CALM      29.89S
ALMA           PTCLDY    69  68  96 SW3       29.90S
WAYCROSS       CLOUDY    68  68 100 S3        29.91R FOG
JESUP          FAIR      72  70  94 CALM      29.90S
BAXLEY         FAIR      72  70  94 CALM      29.89S
BRUNSWICK      CLOUDY    73  72  94 SW7       29.91S
SAINT SIMONS   CLOUDY    72  70  93 SW7       29.90S

$$

SCZ027-028-034-036>038-045-046-048>050-GAZ119-141-031200-
...LAKE AND SUPPLEMENTAL COASTAL OBSERVATIONS...

STATION/POSITION TIME  TEMP    WIND        PRES    WAVE   SWELL
                       AIR SEA DIR/SP/G            HT/PER HT/PER/DIR
                 (UTC) (F)     (DEG/KT/KT) (MB)    (FT/S) (FT/S/D)
WINYAH BAY       NOT AVBL
LAKE MURRAY      1000   69     220/  6/  7 1010.5F
ACE BASIN NERRS  0945   74        CALM     1012.0
FORT PULASKI     1000   74 74  220/  6/ 10 1012.0F
SAPELO ISLAND    1000   74     230/  8     1012.0S

$$

ANZ835-935-AMZ111-154-330-350-352-354-370-450-454-472-031200-
...C-MAN AND BUOY OBSERVATIONS...

STATION/POSITION TIME  TEMP    WIND        PRES    WAVE   SWELL
                       AIR SEA DIR/SP/G            HT/PER HT/PER/DIR
                 (UTC) (F)     (DEG/KT/KT) (MB)    (FT/S) (FT/S/D)
BUOY 41004       1050   75 74  190/ 16/ 17 1011.0F   5/ 6   2/ 8
BUOY 41008       NOT AVBL
FOLLY BEACH CMAN 1100   74     220/ 12/ 15 1011.6F
CAPERS NEARSHORE 1008   73 73  180/ 12/ 14 1011.3F
FRIPP NEARSHORE  1008   74 73  230/ 12/ 17 1011.0R


STATION/POSITION TIME  TEMP    WIND        PRES    WAVE   SWELL
                       AIR SEA DIR/SP/G            HT/PER HT/PER/DIR
                 (UTC) (F)     (DEG/KT/KT) (MB)    (FT/S) (FT/S/D)
5E ST. MARYS GA  1021      73                N/A     3/ 6
FRYING PAN BUOY  1000   75 73  190/ 19/ 23 1011.5F
BUOY 41025       1050   74 73  230/ 16/ 17 1010.5F   5/ 5   2/ 70/10
CAPE LOOKOUT NC  1100   71     210/ 12/ 14 1010.9F
BUOY 41002       1050   74 74  170/ 17/ 21 1015.5R   4/ 9   2/ 50/ 9
BUOY 41010       1020   78 78  180/ 16/ 21 1014.2R
ST AUGUSTINE FL  1100   71 71  220/  5/  6 1014.4R


$$




USA.gov is the U.S. government's official web portal to all federal, state and local government web resources and services.